Location: Pedholt
(56.0260°N, 10.2097°E)
Time: 05:13:21
(UTC+00:00)

Vanguard 3 - Pass Details

Date: 01 August 2021
Orbit: 510 x 3260 km, 33.3° (Epoch: 19 September)

Event Time Altitude Azimuth Distance (km) Brightness Sun altitude
Rises 20:14:24 0° 254° (WSW) 6,488 12.2 -6.0°
Reaches altitude 10° 20:19:04 10° 245° (WSW) 5,758 11.7 -6.4°
Maximum altitude 20:34:08 32° 192° (SSW) 4,577 10.6 -7.9°
Enters shadow 20:49:28 10° 139° (SE) 5,853 10.8 -9.2°
